Location: Newark
(46.7000°N, 60.6000°W)
Time: 06:09:01
(UTC+00:00)

Transit 2A Rocket - Pass Details

Date: 30 October 2020
Orbit: 588 x 914 km, 66.7° (Epoch: 27 November)

Event Time Altitude Azimuth Distance (km) Brightness Sun altitude
Rises 16:07:44 0° 282° (WNW) 3,520 8.4 29.0°
Reaches altitude 10° 16:11:47 10° 308° (NW) 2,540 7.5 28.9°
Maximum altitude 16:14:37 14° 337° (NNW) 2,254 7.1 28.9°
Drops below altitude 10° 16:17:24 10° 6° (N) 2,458 7.2 28.8°
Sets 16:21:12 0° 33° (NNE) 3,319 7.8 28.7°
